Terminal Aerodrome Forecast
Issued by NWS

Home | Current Version | Previous Version | Text Only | Print | Product List | Glossary On
Versions: 1 2 3 4 5 6 7 8 9 10 11 12 13 14 15 16 17 18 19
913
FTUS43 KILX 230540
TAFCMI
TAF
KCMI 230540Z 2306/2406 20009KT P6SM SCT200
     FM230900 VRB06KT 2SM BR BKN025
      TEMPO 2309/2313 1/2SM FG
     FM231500 10004KT P6SM BKN060
     FM232300 10009KT P6SM OVC015=

USA.gov is the U.S. government's official web portal to all federal, state and local government web resources and services.